Location: Hamburg
(53.5511°N, 9.9937°E)
Time: 17:10:17
(UTC+02:00)

ISS - Pass Details

Date: 20 March 2026
Orbit: 416 x 425 km, 51.6° (Epoch: 19 April)

Event Time Altitude Azimuth Distance (km) Brightness Sun altitude
Rises 20:39:16 0° 275° (W) 2,389 1.3 -18.8°
Reaches altitude 10° 20:41:24 10° 270° (W) 1,520 0.0 -19.1°
Enters shadow 20:44:42 50° 196° (SSW) 548 -3.3 -19.5°
